Total_Precipitation_Accumulation
2.16 1.93 3.18 3.47 3.07 2.71 2.61 2.59 2.57 2.55 2.55 2.51 2.33 2.10 1.89 1.78 1.64 1.49 1.33 1.28 1.34 1.34 1.34 1.33 1.37 1.29 1.19 1.15 1.13 1.22 1.33 1.49 1.56 1.54 1.62 1.76 1.72 1.74 1.99 2.37 2.60 2.94 2.54
1.76 1.86 3.06 3.32 2.88 2.43 2.29 2.39 2.55 2.50 2.47 2.35 2.26 2.12 1.97 1.77 1.58 1.45 1.30 1.24 1.22 1.19 1.13 1.23 1.37 1.32 1.23 1.28 1.32 1.36 1.41 1.45 1.54 1.65 1.89 2.01 1.84 1.81 1.90 2.30 2.44 2.78 2.56
1.67 1.75 2.48 3.13 2.80 2.41 2.27 2.38 2.56 2.43 2.40 2.24 2.20 2.08 1.93 1.67 1.54 1.49 1.36 1.27 1.28 1.16 1.07 1.15 1.36 1.30 1.28 1.32 1.35 1.46 1.47 1.55 1.67 1.83 2.31 3.02 2.28 1.92 1.95 2.15 2.29 2.17 2.37
1.49 1.57 2.09 3.06 2.72 2.53 2.45 2.50 2.48 2.40 2.45 2.29 2.16 1.99 1.83 1.66 1.67 1.68 1.68 1.65 1.49 1.28 1.19 1.19 1.38 1.29 1.19 1.28 1.43 1.44 1.45 1.61 1.79 1.87 2.26 2.91 2.72 2.09 2.13 2.27 2.36 2.14 2.21
1.43 1.56 2.37 3.08 2.74 2.56 2.53 2.53 2.41 2.47 2.50 2.33 2.11 1.89 1.70 1.73 1.99 2.02 1.89 1.77 1.55 1.34 1.22 1.21 1.26 1.28 1.21 1.19 1.31 1.34 1.40 1.56 1.77 1.68 2.07 2.80 3.11 2.64 2.17 2.19 2.28 2.22 2.24
1.63 1.65 2.39 3.09 2.90 2.65 2.56 2.49 2.42 2.46 2.57 2.51 2.21 1.91 1.76 1.78 1.88 1.90 1.81 1.69 1.51 1.36 1.23 1.27 1.30 1.26 1.24 1.18 1.23 1.29 1.35 1.48 1.41 1.58 2.12 2.61 3.00 2.60 2.08 2.04 2.24 2.30 2.32
1.58 1.64 2.09 2.81 2.78 2.58 2.47 2.43 2.57 2.62 2.59 2.58 2.35 2.03 1.92 1.88 1.86 1.91 1.82 1.68 1.41 1.31 1.24 1.34 1.34 1.27 1.19 1.20 1.20 1.20 1.33 1.20 1.09 1.49 1.95 2.45 2.59 2.50 2.24 2.24 2.41 2.40 2.53
1.58 1.55 1.82 2.43 2.67 2.57 2.54 2.47 2.56 2.64 2.61 2.47 2.16 1.97 1.86 1.89 1.92 1.92 1.83 1.71 1.46 1.39 1.33 1.29 1.28 1.24 1.22 1.24 1.24 1.26 1.28 1.00 0.85 1.20 1.65 2.31 2.71 2.65 2.37 2.28 2.43 2.50 2.66
1.79 1.76 1.88 2.18 2.41 2.79 2.84 2.68 2.68 2.72 2.64 2.41 2.04 1.94 1.87 1.83 1.74 1.74 1.73 1.63 1.49 1.45 1.33 1.23 1.19 1.16 1.24 1.26 1.25 1.27 1.22 0.97 0.92 1.21 1.24 1.98 2.60 2.64 2.37 2.32 2.37 2.49 2.68
1.86 1.83 1.76 1.91 2.04 2.34 2.56 2.78 2.88 2.80 2.69 2.51 2.12 1.98 1.92 1.82 1.67 1.62 1.51 1.52 1.48 1.50 1.50 1.38 1.29 1.25 1.27 1.32 1.30 1.22 1.14 0.92 0.93 1.01 1.34 1.84 2.67 2.72 2.45 2.41 2.40 2.43 2.53
1.71 1.62 1.55 1.65 1.79 2.01 2.26 2.47 2.76 2.72 2.64 2.44 2.09 2.01 1.96 1.73 1.48 1.44 1.38 1.68 1.60 1.62 1.62 1.59 1.56 1.48 1.34 1.27 1.28 1.13 0.89 0.87 1.08 1.21 1.52 2.20 2.93 2.98 2.70 2.54 2.52 2.44 2.39
1.67 1.52 1.37 1.42 1.56 1.69 1.83 2.34 2.45 2.14 1.99 1.82 1.95 1.89 1.82 1.77 1.58 1.19 1.35 1.72 1.85 1.83 1.64 1.57 1.63 1.39 1.05 0.91 0.95 0.87 0.75 0.86 1.06 1.20 1.55 2.52 3.09 3.10 2.70 2.50 2.63 2.61 2.45
1.45 1.36 1.28 1.29 1.27 1.28 1.46 1.81 2.04 2.07 2.01 1.81 1.71 1.67 1.72 1.64 1.44 1.22 1.30 1.39 1.38 1.34 1.22 1.23 1.16 0.93 0.85 0.90 0.88 0.75 0.70 0.80 0.97 1.12 1.59 2.57 3.15 3.15 2.75 2.55 2.57 2.55 2.45
1.25 1.23 1.16 1.09 1.05 1.03 1.13 1.23 1.34 1.59 1.69 1.65 1.43 1.28 1.34 1.46 1.39 1.21 1.21 1.24 1.24 1.21 1.27 1.26 1.18 1.06 1.01 0.99 0.91 0.89 0.90 0.95 1.00 1.12 1.56 2.35 3.19 3.35 3.24 3.12 2.90 2.76 2.60
1.20 1.19 1.08 0.95 0.94 0.96 1.05 1.11 1.06 1.29 1.45 1.50 1.44 1.25 1.17 1.21 1.25 1.19 1.07 1.15 1.15 1.13 1.14 1.15 1.12 1.16 1.23 1.19 1.10 1.09 1.12 1.09 1.03 1.03 1.32 1.95 2.96 3.71 3.98 3.91 3.36 3.00 2.82
1.07 1.14 1.06 1.00 1.04 1.00 0.95 0.99 1.01 1.08 1.21 1.23 1.34 1.28 1.22 1.17 1.14 1.16 1.14 1.19 1.21 1.20 1.13 1.06 1.03 1.18 1.22 1.25 1.20 1.13 1.09 0.99 1.01 1.15 1.37 1.59 1.90 2.59 3.60 3.95 3.69 3.38 3.18
0.97 0.95 0.91 0.91 0.99 0.98 0.97 0.98 0.99 1.12 1.18 1.18 1.20 1.15 1.22 1.17 1.13 1.16 1.15 1.19 1.20 1.25 1.23 1.19 1.18 1.26 1.28 1.36 1.37 1.20 1.12 1.06 1.03 1.12 1.27 1.45 1.35 1.50 2.34 3.29 3.69 3.47 3.35
0.86 0.85 0.84 0.74 0.85 0.97 1.06 1.11 1.19 1.26 1.27 1.29 1.20 1.12 1.11 1.08 1.08 1.16 1.18 1.21 1.29 1.25 1.28 1.36 1.37 1.44 1.46 1.50 1.50 1.30 1.12 1.22 1.13 1.12 1.27 1.34 1.36 1.33 1.59 2.03 2.48 2.84 3.27
0.87 0.88 0.91 0.84 0.88 0.99 1.06 1.21 1.30 1.39 1.47 1.55 1.45 1.42 1.35 1.23 1.23 1.33 1.39 1.39 1.42 1.44 1.42 1.34 1.36 1.48 1.62 1.61 1.42 1.33 1.23 1.27 1.26 1.24 1.42 1.41 1.42 1.42 1.48 1.43 1.53 1.88 2.53
0.93 0.92 0.97 1.04 1.06 1.18 1.35 1.57 1.79 1.90 2.03 2.13 2.03 1.91 1.73 1.51 1.46 1.63 1.68 1.56 1.60 1.72 1.79 1.63 1.68 1.60 1.55 1.64 1.45 1.40 1.40 1.35 1.30 1.38 1.44 1.52 1.63 1.48 1.46 1.39 1.35 1.28 1.65
0.93 0.92 0.92 0.98 1.08 1.19 1.41 1.72 2.23 2.50 2.58 2.44 2.37 2.27 2.05 1.81 1.79 1.99 2.02 2.01 2.01 2.02 2.00 1.92 2.08 1.99 1.71 1.63 1.87 1.86 1.68 1.49 1.39 1.37 1.42 1.65 1.75 1.66 1.67 1.59 1.49 1.38 1.26
0.78 0.81 0.96 1.02 1.08 1.20 1.45 1.76 2.13 2.56 2.62 2.55 2.43 2.33 2.22 2.08 2.03 2.07 2.30 2.42 2.39 2.59 2.61 2.37 2.49 2.51 2.10 1.85 2.17 2.53 2.23 1.98 1.53 1.41 1.53 1.59 1.68 1.77 1.81 1.66 1.50 1.41 1.38
0.70 0.66 0.78 0.95 1.14 1.43 1.72 2.02 2.20 2.50 2.60 2.60 2.46 2.39 2.40 2.33 2.20 2.27 2.38 2.54 2.55 2.64 2.86 2.97 2.87 2.94 2.73 2.29 2.15 2.53 2.48 2.29 2.05 1.67 1.56 1.64 1.78 1.83 1.88 1.86 1.66 1.41 1.39
0.63 0.60 0.68 0.83 1.12 1.52 1.87 2.10 2.36 2.72 2.82 2.67 2.58 2.50 2.48 2.47 2.46 2.57 2.58 2.65 2.67 2.68 2.79 2.96 2.95 3.12 3.24 2.82 2.44 2.20 2.04 2.06 2.23 2.05 1.76 1.70 1.84 1.83 1.84 1.87 1.89 1.72 1.56
0.67 0.69 0.75 0.94 1.21 1.53 1.78 2.06 2.40 2.60 2.70 2.76 2.65 2.59 2.56 2.58 2.59 2.65 2.72 2.85 2.83 2.80 2.74 2.95 3.04 3.15 3.12 3.06 2.91 2.73 2.57 2.32 1.97 2.12 2.13 1.93 1.79 1.68 1.73 1.87 2.03 1.98 1.82
0.72 0.81 0.93 1.10 1.29 1.54 1.78 2.06 2.22 2.40 2.54 2.59 2.63 2.56 2.51 2.55 2.65 2.53 2.46 2.65 2.71 2.73 2.69 2.85 2.98 3.11 3.11 3.16 3.09 2.80 2.82 2.73 2.35 2.31 2.16 1.98 1.99 1.79 1.69 1.77 1.83 1.83 1.82